Hourly Weather Almassora

Today, 17 May, Monday

Time Temperature Precipitation Wind Pressure Humidity
00:00 +23°C° 0 mm 5 mps 751 mmHg 59%
01:00 +22°C° 0 mm 5 mps 751 mmHg 63%
02:00 +21°C° 0 mm 6 mps 752 mmHg 68%
03:00 +20°C° 0 mm 6 mps 752 mmHg 72%
04:00 +19°C° 0 mm 5 mps 753 mmHg 74%
05:00 +19°C° 0 mm 4 mps 753 mmHg 77%
06:00 +19°C° 0 mm 3 mps 754 mmHg 79%
07:00 +19°C° 0 mm 3 mps 754 mmHg 75%
08:00 +19°C° 0 mm 3 mps 755 mmHg 72%
09:00 +20°C° 0 mm 3 mps 755 mmHg 68%
10:00 +20°C° 0 mm 4 mps 755 mmHg 66%
11:00 +21°C° 0 mm 4 mps 756 mmHg 65%
12:00 +21°C° 0 mm 4 mps 756 mmHg 63%
13:00 +21°C° 0 mm 4 mps 755 mmHg 63%
14:00 +22°C° 0 mm 4 mps 755 mmHg 63%
15:00 +22°C° 0 mm 4 mps 755 mmHg 63%
16:00 +21°C° 0 mm 3 mps 755 mmHg 65%
17:00 +21°C° 0 mm 3 mps 755 mmHg 67%
18:00 +20°C° 0 mm 2 mps 755 mmHg 69%
19:00 +20°C° 0 mm 2 mps 755 mmHg 72%
20:00 +19°C° 0 mm 2 mps 756 mmHg 75%
21:00 +18°C° 0 mm 2 mps 756 mmHg 78%
22:00 +18°C° 0 mm 2 mps 756 mmHg 80%
23:00 +18°C° 0 mm 3 mps 756 mmHg 81%

Tomorrow, 18 May, Tuesday

Time Temperature Precipitation Wind Pressure Humidity
00:00 +17°C° 0 mm 3 mps 756 mmHg 83%
01:00 +17°C° 0 mm 3 mps 756 mmHg 84%
02:00 +17°C° 0 mm 2 mps 756 mmHg 85%
03:00 +17°C° 0 mm 2 mps 756 mmHg 86%
04:00 +17°C° 0 mm 2 mps 756 mmHg 85%
05:00 +17°C° 0 mm 2 mps 756 mmHg 84%
06:00 +17°C° 0 mm 2 mps 756 mmHg 83%
07:00 +19°C° 0 mm 3 mps 756 mmHg 77%
08:00 +20°C° 0 mm 3 mps 756 mmHg 72%
09:00 +21°C° 0 mm 3 mps 756 mmHg 66%
10:00 +24°C° 0 mm 3 mps 756 mmHg 61%
11:00 +25°C° 0 mm 4 mps 755 mmHg 56%
12:00 +27°C° 0 mm 5 mps 755 mmHg 51%
13:00 +26°C° 0 mm 5 mps 754 mmHg 53%
14:00 +26°C° 0 mm 4 mps 754 mmHg 54%
15:00 +26°C° 0 mm 4 mps 754 mmHg 56%
16:00 +25°C° 0 mm 4 mps 754 mmHg 57%
17:00 +25°C° 0 mm 3 mps 754 mmHg 59%
18:00 +24°C° 0 mm 2 mps 754 mmHg 61%
19:00 +23°C° 0 mm 2 mps 754 mmHg 65%
20:00 +21°C° 0 mm 2 mps 755 mmHg 70%
21:00 +20°C° 0 mm 3 mps 756 mmHg 75%
22:00 +20°C° 0 mm 3 mps 756 mmHg 74%
23:00 +19°C° 0 mm 4 mps 756 mmHg 73%

Day after tomorrow, 19 May, Wednesday

Time Temperature Precipitation Wind Pressure Humidity
00:00 +19°C° 0 mm 4 mps 756 mmHg 72%
01:00 +18°C° 0 mm 4 mps 757 mmHg 78%
02:00 +18°C° 0 mm 4 mps 757 mmHg 84%
03:00 +17°C° 0 mm 4 mps 757 mmHg 90%
04:00 +17°C° 0 mm 3 mps 758 mmHg 86%
05:00 +17°C° 0 mm 3 mps 758 mmHg 83%
06:00 +17°C° 0 mm 3 mps 758 mmHg 79%
07:00 +19°C° 0 mm 3 mps 759 mmHg 72%
08:00 +20°C° 0 mm 3 mps 759 mmHg 64%
09:00 +21°C° 0 mm 3 mps 759 mmHg 57%
10:00 +21°C° 0 mm 4 mps 759 mmHg 57%
11:00 +22°C° 0 mm 4 mps 759 mmHg 57%
12:00 +22°C° 0 mm 4 mps 759 mmHg 57%
13:00 +22°C° 0 mm 4 mps 759 mmHg 57%
14:00 +22°C° 0 mm 3 mps 758 mmHg 58%
15:00 +22°C° 0 mm 3 mps 758 mmHg 59%
16:00 +22°C° 0 mm 3 mps 758 mmHg 59%
17:00 +23°C° 0 mm 2 mps 758 mmHg 59%
18:00 +21°C° 0 mm 2 mps 758 mmHg 59%
19:00 +20°C° 0 mm 2 mps 759 mmHg 62%
20:00 +19°C° 0 mm 2 mps 759 mmHg 66%
21:00 +18°C° 0 mm 2 mps 760 mmHg 69%
22:00 +18°C° 0 mm 2 mps 760 mmHg 70%
23:00 +18°C° 0 mm 2 mps 759 mmHg 71%

20 May, Thursday

Time Temperature Precipitation Wind Pressure Humidity
00:00 +18°C° 0 mm 2 mps 759 mmHg 72%
01:00 +17°C° 0 mm 2 mps 759 mmHg 70%
02:00 +17°C° 0 mm 2 mps 759 mmHg 68%
03:00 +17°C° 0 mm 2 mps 759 mmHg 66%
04:00 +18°C° 0 mm 1 mps 759 mmHg 64%
05:00 +19°C° 0 mm 1 mps 759 mmHg 61%
06:00 +19°C° 0 mm 1 mps 760 mmHg 59%
07:00 +20°C° 0 mm 1 mps 760 mmHg 56%
08:00 +21°C° 0 mm 2 mps 760 mmHg 54%
09:00 +23°C° 0 mm 2 mps 760 mmHg 52%
10:00 +24°C° 0 mm 3 mps 760 mmHg 51%
11:00 +23°C° 0 mm 4 mps 760 mmHg 51%
12:00 +25°C° 0 mm 4 mps 759 mmHg 51%
13:00 +25°C° 0 mm 4 mps 759 mmHg 53%
14:00 +23°C° 0 mm 4 mps 759 mmHg 56%
15:00 +23°C° 0 mm 4 mps 759 mmHg 58%
16:00 +22°C° 0 mm 4 mps 759 mmHg 61%
17:00 +21°C° 0 mm 4 mps 759 mmHg 63%
18:00 +20°C° 0 mm 3 mps 759 mmHg 66%
19:00 +20°C° 0 mm 3 mps 759 mmHg 70%
20:00 +19°C° 0 mm 3 mps 760 mmHg 74%
21:00 +18°C° 0 mm 2 mps 760 mmHg 79%
22:00 +18°C° 0 mm 2 mps 760 mmHg 80%
23:00 +17°C° 0 mm 2 mps 760 mmHg 82%

21 May, Friday

Time Temperature Precipitation Wind Pressure Humidity
00:00 +17°C° 0 mm 2 mps 759 mmHg 83%
01:00 +17°C° 0 mm 3 mps 759 mmHg 84%
02:00 +17°C° 0 mm 3 mps 759 mmHg 85%
03:00 +16°C° 0 mm 3 mps 758 mmHg 86%
04:00 +17°C° 0 mm 3 mps 758 mmHg 83%
05:00 +17°C° 0 mm 3 mps 758 mmHg 81%
06:00 +17°C° 0 mm 3 mps 758 mmHg 79%
07:00 +19°C° 0 mm 3 mps 758 mmHg 72%
08:00 +20°C° 0 mm 4 mps 758 mmHg 66%
09:00 +22°C° 0 mm 5 mps 758 mmHg 59%
10:00 +23°C° 0 mm 5 mps 757 mmHg 57%
11:00 +23°C° 0 mm 5 mps 757 mmHg 54%
12:00 +24°C° 0 mm 6 mps 757 mmHg 52%
13:00 +24°C° 0 mm 6 mps 756 mmHg 53%
14:00 +24°C° 0 mm 6 mps 756 mmHg 55%
15:00 +23°C° 0 mm 6 mps 755 mmHg 56%
16:00 +23°C° 0 mm 5 mps 755 mmHg 58%
17:00 +22°C° 0 mm 4 mps 755 mmHg 60%
18:00 +21°C° 0 mm 4 mps 755 mmHg 61%
19:00 +20°C° 0 mm 3 mps 755 mmHg 63%
20:00 +20°C° 0 mm 2 mps 755 mmHg 65%
21:00 +20°C° 0 mm 1 mps 755 mmHg 67%
22:00 +19°C° 0 mm 2 mps 754 mmHg 70%
23:00 +18°C° 0 mm 2 mps 754 mmHg 72%

22 May, Saturday

Time Temperature Precipitation Wind Pressure Humidity
00:00 +18°C° 0 mm 2 mps 754 mmHg 74%
01:00 +18°C° 0 mm 2 mps 754 mmHg 75%
02:00 +19°C° 0 mm 1 mps 753 mmHg 76%
03:00 +19°C° 0 mm 1 mps 753 mmHg 76%
04:00 +18°C° 0 mm 2 mps 753 mmHg 76%
05:00 +18°C° 0 mm 2 mps 754 mmHg 75%
06:00 +18°C° 0 mm 3 mps 754 mmHg 75%
07:00 +20°C° 0 mm 3 mps 754 mmHg 69%
08:00 +21°C° 0 mm 4 mps 754 mmHg 63%
09:00 +22°C° 0 mm 4 mps 755 mmHg 58%
10:00 +23°C° 0 mm 4 mps 755 mmHg 56%
11:00 +25°C° 0 mm 4 mps 754 mmHg 55%
12:00 +25°C° 0 mm 4 mps 754 mmHg 54%
13:00 +25°C° 0 mm 4 mps 754 mmHg 55%
14:00 +23°C° 0 mm 4 mps 754 mmHg 56%
15:00 +23°C° 0 mm 4 mps 754 mmHg 57%
16:00 +22°C° 0 mm 4 mps 754 mmHg 60%
17:00 +21°C° 0 mm 4 mps 754 mmHg 64%
18:00 +20°C° 0 mm 3 mps 754 mmHg 67%
19:00 +19°C° 0 mm 3 mps 754 mmHg 72%
20:00 +19°C° 0 mm 3 mps 754 mmHg 77%
21:00 +18°C° 0 mm 3 mps 755 mmHg 83%
22:00 +17°C° 0 mm 3 mps 755 mmHg 84%
23:00 +17°C° 0 mm 3 mps 754 mmHg 84%
Show more

We Need Your Consent

Meteoprog and our Service Providers may store and access personal data such as cookies, device identifiers or other similar technologies on your device and process such data to personalise content and ads, as well as provide social media features and to analyse the traffic.

  • Store and/or access information on your device

    Cookies, device identifiers or other information can be stored or accessed on your device for the purposes indicated above.

  • Personalised ads and content, ad and content measurement, audience insights, and products development

    Ads and content can be personalised based on a profile. More data can be added to better personalise ads and content. Ad and content performance can be measured. Insights about the audience who saw the ads and content can be derived. Such data can be used to develop or improve user’s experience, systems and software.

By clicking ‘I Agree’ you will allow the use of indicated cookies, device identifiers, web beacons or other similar technologies. Your settings can be changed in the browser on your device.

For certain purposes, legitimate interests may be relied on, rather than consent. You can read more about this in our Privacy and Cookie Policy.